Location: Newark
(50.0306°N, 2.3272°E)
Time: 15:32:09
(UTC+00:00)

S-56A Canister/Altair - Visible Passes

Search period start: 11 December 2019 00:00
Search period end: 21 December 2019 00:00
Orbit: 633 x 2499 km, 38.9° (Epoch: 10 December)

Date Brightness Start Highest point End Pass type
(mag) Time Alt. Az. Time Alt. Az. Time Alt. Az.
12 Dec 12.3 06:53:36 10° SSE 06:59:42 14° SE 07:06:15 10° E visible
13 Dec 12.3 06:23:01 10° SE 06:26:49 12° SE 06:30:48 10° ESE visible
13 Dec 12.1 16:42:39 10° WSW 16:47:15 12° SW 16:51:29 10° SW visible
16 Dec 11.6 06:41:37 10° S 06:50:21 24° SE 07:00:34 10° E visible
17 Dec 11.6 06:09:42 10° S 06:17:23 20° SE 06:26:26 10° E visible
18 Dec 11.6 05:38:04 10° SSE 05:44:31 17° SE 05:52:03 10° E visible
19 Dec 11.6 05:06:50 10° SSE 05:11:44 14° SE 05:17:16 10° E visible
19 Dec 11.2 07:04:27 10° SSW 07:14:26 36° SSE 07:26:58 10° E visible
20 Dec 11.6 04:36:51 10° SE 04:39:02 11° SE 04:41:20 10° ESE visible
20 Dec 11.2 06:32:06 10° SSW 06:41:21 33° SE 06:53:09 10° E visible
